Regional Weather Roundup
Issued by NWS

Home | Current Version | Previous Version | Text Only | Print | Product List | Glossary Off
Versions: 1 2 3 4 5 6 7 8 9 10 11 12 13 14 15 16 17 18 19 20 21 22 23 24 25 26 27 28 29 30 31 32 33 34 35 36 37 38 39 40 41 42 43 44 45 46 47 48 49 50

000
ASUS43 KMKX 131220
RWRWI

WISCONSIN REGIONAL WEATHER ROUNDUP
NATIONAL WEATHER SERVICE MILWAUKEE/SULLIVAN WI
600 AM CST SAT FEB 13 2016

NOTE: "FAIR" INDICATES FEW OR NO CLOUDS BELOW 12,000 FEET WITH NO
SIGNIFICANT WEATHER AND/OR OBSTRUCTIONS TO VISIBILITY.

WIZ001-002-006>008-014>016-023>028-131300-
NORTHWEST WISCONSIN

CITY           SKY/WX    TMP DP  RH WIND       PRES   REMARKS
SUPERIOR ARPT  CLOUDY   -12 -19  68 W3        30.63S
6HR MIN TEMP: -12; 6HR MAX TEMP:  -5;

ASHLAND        CLOUDY   -10 -13  86 W3        30.57R
6HR MIN TEMP: -10; 6HR MAX TEMP:  -2; 6HR PCP: TRACE;

HAYWARD        CLOUDY   -17 -22  78 CALM      30.55S
6HR MIN TEMP: -19; 6HR MAX TEMP:  -6;

SIREN          PTCLDY   -16 -21  75 CALM      30.60F
6HR MIN TEMP: -16; 6HR MAX TEMP:  -5;

CUMBERLAND     PTCLDY   -13 -18  77 NW5       30.55S WCI -25
RICE LAKE      PTCLDY   -12 -19  73 W3        30.60R
6HR MIN TEMP: -13; 6HR MAX TEMP:  -4;

CHETEK         PTCLDY   -11 -18  71 CALM      30.58S
6HR MIN TEMP: -12; 6HR MAX TEMP:  -4;

LADYSMITH      CLOUDY   -11 -19  68 W5        30.54F WCI -23
6HR MIN TEMP: -11; 6HR MAX TEMP:  -5;

EAU CLAIRE     PTCLDY   -10 -16  74 CALM      30.60S
6HR MIN TEMP: -11; 6HR MAX TEMP:  -1;

MENOMONIE      CLOUDY    -7 -18  60 W6        30.61S WCI -20
NEW RICHMOND   CLOUDY   -10 -16  76 CALM      30.61S
6HR MIN TEMP: -10; 6HR MAX TEMP:  -3;

OSCEOLA        CLOUDY    -7 -16  66 CALM      30.65S
6HR MIN TEMP:  -7; 6HR MAX TEMP:  -1;

$$

WIZ003>005-009-010-017-018-131300-
NORTH CENTRAL WISCONSIN

CITY           SKY/WX    TMP DP  RH WIND       PRES   REMARKS
MANITOWISH WTR FLURRIES -10 -14  80 NW3       30.42S
6HR MIN TEMP: -10; 6HR MAX TEMP:  -5;

ARBOR VITAE    FLURRIES  -8 -13  77 NW6       30.42R WCI -21
6HR MIN TEMP:  -8; 6HR MAX TEMP:  -4;

WOODRUFF       FLURRIES  -8 -13  77 NW6       30.42R WCI -21
6HR MIN TEMP:  -8; 6HR MAX TEMP:  -4;

RHINELANDER    CLOUDY    -9 -15  75 W9        30.42R WCI -26
6HR MIN TEMP: -10; 6HR MAX TEMP:  -7;

EAGLE RIVER    LGT SNOW  -7 -13  73 W10       30.39R WCI -25
LAND O LAKES   LGT SNOW  -1  -6  80 NW7       30.38S WCI -14
6HR MIN TEMP:  -2; 6HR MAX TEMP:  -1;

PHILLIPS       CLOUDY   -15 -19  81 CALM      30.47F
6HR MIN TEMP: -15; 6HR MAX TEMP:  -9;

TOMAHAWK       CLOUDY   -12 -16  80 W5        30.46S WCI -24
6HR MIN TEMP: -12; 6HR MAX TEMP:  -7;

MEDFORD        CLOUDY   -13 -19  72 NW5       30.47F WCI -25
6HR MIN TEMP: -13; 6HR MAX TEMP:  -6;

MERRILL        CLOUDY    -9 -15  74 NW5       30.49R WCI -20
$$

WIZ029-030-035-036-043>047-131300-
CENTRAL WISCONSIN

CITY           SKY/WX    TMP DP  RH WIND       PRES   REMARKS
WAUSAU         CLOUDY    -7 -14  71 NW6       30.49R WCI -20
6HR MIN TEMP:  -7; 6HR MAX TEMP:  -2;

MOSINEE        CLEAR     -8 -15  71 W9        30.51R WCI -25
MARSHFIELD     CLOUDY    -9 -20  58 NW12      30.50S WCI -28
6HR MIN TEMP:  -9; 6HR MAX TEMP:  -3;

STEVENS POINT  CLOUDY    -9 -17  67 W3        30.53R
6HR MIN TEMP:  -9; 6HR MAX TEMP:  -4;

WAUPACA        MOCLDY    -3 -14  60 W8        30.55R WCI -18
6HR MIN TEMP:  -3; 6HR MAX TEMP:   1;

WAUTOMA        CLOUDY    -7 -18  59 NW8       30.56R WCI -23
6HR MIN TEMP:  -7; 6HR MAX TEMP:  -3;

WISC RAPIDS    CLOUDY    -7 -18  59 NW7       30.56R WCI -21
6HR MIN TEMP:  -7; 6HR MAX TEMP:  -2;

CAMP DOUGLAS   PTCLDY    -9 -18  65 W8        30.57S WCI -25
6HR MIN TEMP:  -9; 6HR MAX TEMP:  -5;

$$

WIZ011>013-019>022-031-037>040-048>050-131300-
NORTHEAST WISCONSIN

CITY           SKY/WX    TMP DP  RH WIND       PRES   REMARKS
ANTIGO         CLOUDY   -11 -15  80 NW10      30.43S WCI -30
6HR MIN TEMP: -11; 6HR MAX TEMP:  -6;

SHAWANO        PTCLDY    -3 -12  66 W3        30.51S
6HR MIN TEMP:  -3; 6HR MAX TEMP:   1;

OCONTO         PTCLDY    -6 -13  71 W7        30.50S WCI -20
6HR MIN TEMP:  -6; 6HR MAX TEMP:  -3;

STURGEON BAY   CLEAR     -4 -11  71 W13G18    30.48R WCI -23
6HR MIN TEMP:  -4; 6HR MAX TEMP:   0;

GREEN BAY      PTCLDY    -5 -13  68 W10       30.51R WCI -23
6HR MIN TEMP:  -5; 6HR MAX TEMP:  -1;

MANITOWOC      CLEAR     -3 -12  65 NW10      30.51R WCI -20
6HR MIN TEMP:  -3; 6HR MAX TEMP:   0;

APPLETON       CLEAR     -6 -17  59 W12       30.49R WCI -24
CLINTONVILLE   CLEAR     -4 -13  65 NW8       30.51S WCI -19
OSHKOSH        CLEAR     -5 -16  59 W8        30.52S WCI -20
6HR MIN TEMP:  -5; 6HR MAX TEMP:  -1;

$$

WIZ032>034-041-042-053>061-131300-
SOUTHWEST WISCONSIN

CITY           SKY/WX    TMP DP  RH WIND       PRES   REMARKS
LA CROSSE      CLOUDY    -6 -17  59 N7        30.63S WCI -20
6HR MIN TEMP:  -7; 6HR MAX TEMP:   0;

SPARTA         CLOUDY   -14 -19  77 CALM      30.61S
6HR MIN TEMP: -14; 6HR MAX TEMP:   1;

VIROQUA        CLOUDY    -7 -17  61 N6        30.53S WCI -20
6HR MIN TEMP:  -8; 6HR MAX TEMP:  -2;

BOSCOBEL       CLOUDY    -7 -12  79 CALM      30.62S
6HR MIN TEMP:  -9; 6HR MAX TEMP:   1;

PRAIRIE DU CHI CLOUDY    -2 -14  57 CALM      30.62S
6HR MIN TEMP:  -2; 6HR MAX TEMP:   2;

PLATTEVILLE    CLOUDY    -4 -12  70 W3        30.56S
6HR MIN TEMP:  -4; 6HR MAX TEMP:   3;

$$

WIZ056-057-062-063-064-067-068-131300-
SOUTH CENTRAL WISCONSIN

CITY           SKY/WX    TMP DP  RH WIND       PRES   REMARKS
REEDSBURG      PTCLDY    -5 -16  59 W3        30.57S
6HR MIN TEMP:  -5; 6HR MAX TEMP:   0;

BARABOO/DELLS  PTCLDY    -4 -17  54 NW7       30.55S WCI -18
6HR MIN TEMP:  -4; 6HR MAX TEMP:   0;

LONE ROCK      CLOUDY    -2 -15  54 NW6       30.60S WCI -14
6HR MIN TEMP:  -6; 6HR MAX TEMP:   3;

MINERAL POINT  CLOUDY     0 -15  50 N6        30.53S WCI -12
MADISON        CLOUDY    -3 -15  56 NW6       30.56R WCI -15
6HR MIN TEMP:  -3; 6HR MAX TEMP:   2;

MIDDLETON      CLOUDY    -1 -14  55 NW6       30.56S WCI -13
6HR MIN TEMP:  -1; 6HR MAX TEMP:   3;

WATERTOWN      CLEAR     -2 -13  59 NW9       30.54R WCI -18
6HR MIN TEMP:  -2; 6HR MAX TEMP:   2;

MONROE         CLEAR      1 -13  51 N7        30.53S WCI -11
JANESVILLE     CLEAR      1 -11  55 NW8       30.56R WCI -12
$$

WIZ051-052-058>065-066-070>072-131300-
SOUTHEAST WISCONSIN

CITY           SKY/WX    TMP DP  RH WIND       PRES   REMARKS
MILWAUKEE      PTCLDY     1 -13  51 NW10      30.53R WCI -15
6HR MIN TEMP:   1; 6HR MAX TEMP:   4;

WAUKESHA       CLEAR     -2 -15  55 W15       30.53R WCI -22
MILWAUKEE/TIMM PTCLDY     0 -15  50 W9        30.53S WCI -16
RACINE         CLEAR      1 -13  51 NW9       30.54R WCI -14
6HR MIN TEMP:   1; 6HR MAX TEMP:   4;

BURLINGTON     CLEAR     -2 -13  57 NW12      30.54R WCI -19
6HR MIN TEMP:  -2; 6HR MAX TEMP:   2;

KENOSHA        CLEAR      1 -11  57 NW10      30.53R WCI -15
6HR MIN TEMP:   1; 6HR MAX TEMP:   4;

FOND DU LAC    PTCLDY    -4 -15  59 NW14      30.52R WCI -24
6HR MIN TEMP:  -4; 6HR MAX TEMP:   0; 6HR PCP: TRACE;

SHEBOYGAN      CLEAR     -2 -13  59 NW13      30.50R WCI -20
6HR MIN TEMP:  -2; 6HR MAX TEMP:   1;

WEST BEND      CLEAR      0 -15  50 W12       30.50S WCI -18
JUNEAU         CLEAR     -4 -15  60 W6        30.54R WCI -17
6HR MIN TEMP:  -4; 6HR MAX TEMP:   0;

$$

LSZ147-162-131300-
LAKE SUPERIOR

STATION/POSITION TIME  TEMP    WIND        PRES    WAVE
                       AIR SEA DIR/SP/G            HT/PER
                 (UTC) (F)     (DEG/KT/KT) (MB)    (FT/S)
DEVILS ISLAND    1200    0     340/ 14/ 18 1037.2S
SAXON HARBOR     1140    0                 1034.2F
$$

LMZ867-665-643>646-131300-
LAKE MICHIGAN

STATION/POSITION TIME  TEMP    WIND        PRES    WAVE
                       AIR SEA DIR/SP/G            HT/PER
                 (UTC) (F)     (DEG/KT/KT) (MB)    (FT/S)
CHAMBERS ISLAND  1100   -1     280/  7/ 14 1031.2R
KEWAUNEE LAKESHO 1100   -2     300/  9/ 13 1031.2R
SHEBOYGAN LAKESH 1200   -1     290/ 13/ 16 1035.2R
PORT WASHINC1F1C2F2C3F3C4F4C5F5C6F6C7F7C8M1C9M2Ca!


USA.gov is the U.S. government's official web portal to all federal, state and local government web resources and services.